カタログに戻る

FENGYUN 1C DEB

運用中SSO
NORAD 30357·DEBRIS·🇨🇳 China

打ち上げ May 10, 1999 から Taiyuan Satellite Launch Center

Loading…

次のパス (今後24時間)

TLE

最新Source: Space-Track

元期: Sep 14, 2026, 07:26 UTC

1 30357U 99025ABU 26257.31003566  .00000142  00000-0  11279-3 0  9999
2 30357  98.7824 281.2572 0048227 276.2612 146.5180 14.05374123  6724

AllMySatでFENGYUN 1C DEBをリアルタイム追跡

Download on the App Store